Rotterdam, Netherlands

2:56 PM CEST on August 17, 2017 (GMT +0200)
Rotterdam

Weather History for EHRD - January, 2014

Change the Weather History Date:

Tuesday, January 28, 2014

  Actual Average Record
Temperature  
Mean Temperature 40 °F -  
Max Temperature 42 °F 43 °F 55 °F (2002)
Min Temperature 37 °F 33 °F 21 °F (2006)
Degree Days  
Heating Degree Days 26    
Moisture  
Dew Point 35 °F    
Average Humidity 81    
Maximum Humidity 93    
Minimum Humidity 68    
Precipitation  
Precipitation 0.02 in - - ()
Sea Level Pressure  
Sea Level Pressure 29.34 in    
Wind  
Wind Speed 15 mph ()    
Max Wind Speed 22 mph    
Max Gust Speed 34 mph    
Visibility 8.8 miles    
Events Rain    
Averages and records for this station are not official NWS values.
T = Trace of Precipitation, MM = Missing Value Source: Averaged Metar Reports

Daily Weather History Graph

Daily Weather History Graph

Search for Another Location

Airport or City:

Trip Planner

Search our weather history database for the weather conditions in past years. The results will help you decide how hot, cold, wet, or windy it might be!

Date:

Astronomy

Jan. 28, 2014 Rise Set
Actual Time 8:28 AM CET 5:22 PM CET
Civil Twilight 7:50 AM CET 5:59 PM CET
Nautical Twilight 7:10 AM CET 6:40 PM CET
Astronomical Twilight 6:30 AM CET 7:20 PM CET
Moon 6:00 AM CET (1/28) 2:50 PM CET (1/28)
Length of Visible Light 10h 08m
Length of Day
8h 54m
Waning Crescent, 9% of the Moon is Illuminated
Jan 28
Waning Crescent
Jan 30
New
Feb 6
First Quarter
Feb 15
Full
Feb 22
Last Quarter

Hourly Weather History & Observations

Time (CET) Temp. Windchill Dew Point Humidity Pressure Visibility Wind Dir Wind Speed Gust Speed Precip Events Conditions
12:00 AM 38 °F - 36 °F 89% 29.31 in 14 mi South 13.4 mph - -   Partly Cloudy
12:25 AM 39.2 °F 31.6 °F 35.6 °F 87% 29.30 in 6.2 mi South 12.7 mph - N/A   Scattered Clouds
12:55 AM 39.2 °F 31.2 °F 35.6 °F 87% 29.30 in 6.2 mi South 13.8 mph - N/A   Mostly Cloudy
1:00 AM 38 °F - 36 °F 89% 29.32 in 12 mi South 13.4 mph - -   Partly Cloudy
1:25 AM 39.2 °F 30.8 °F 35.6 °F 87% 29.30 in 6.2 mi South 15.0 mph - N/A   Scattered Clouds
1:55 AM 39.2 °F 31.6 °F 35.6 °F 87% 29.30 in 6.2 mi South 12.7 mph - N/A   Overcast
2:00 AM 39 °F - 36 °F 84% 29.32 in 15 mi South 13.4 mph - -   Overcast
2:25 AM 39.2 °F 30.8 °F 35.6 °F 87% 29.30 in 6.2 mi South 15.0 mph - N/A   Light Drizzle
2:55 AM 39.2 °F 30.5 °F 35.6 °F 87% 29.30 in 6.2 mi South 16.1 mph - N/A   Mostly Cloudy
3:00 AM 40 °F - 36 °F 78% 29.33 in 15 mi South 17.9 mph - - Rain Drizzle
3:25 AM 39.2 °F 30.5 °F 35.6 °F 87% 29.30 in 6.2 mi South 16.1 mph - N/A   Scattered Clouds
3:55 AM 39.2 °F 30.2 °F 35.6 °F 87% 29.30 in 6.2 mi South 17.3 mph - N/A   Unknown
4:00 AM 39 °F - 35 °F 80% 29.32 in 16 mi South 17.9 mph - -  
4:25 AM 39.2 °F 30.5 °F 35.6 °F 87% 29.30 in 6.2 mi South 16.1 mph - N/A   Unknown
4:55 AM 39.2 °F 30.5 °F 35.6 °F 87% 29.33 in 6.2 mi SSE 16.1 mph - N/A   Scattered Clouds
5:00 AM 38 °F - 35 °F 84% 29.33 in 14 mi SSE 13.4 mph - -   Mostly Cloudy
5:25 AM 37.4 °F 28.9 °F 35.6 °F 93% 29.33 in 6.2 mi South 13.8 mph - N/A   Scattered Clouds
5:55 AM 37.4 °F 28.5 °F 33.8 °F 87% 29.33 in 6.2 mi South 15.0 mph - N/A   Scattered Clouds
6:00 AM 38 °F - 35 °F 82% 29.33 in 11 mi South 15.7 mph - -   Partly Cloudy
6:25 AM 39.2 °F 30.5 °F 35.6 °F 87% 29.33 in 6.2 mi SSE 16.1 mph - N/A   Mostly Cloudy
6:55 AM 37.4 °F 28.5 °F 33.8 °F 87% 29.30 in 6.2 mi SSE 15.0 mph - N/A   Scattered Clouds
7:00 AM 37 °F - 34 °F 84% 29.32 in 11 mi SSE 15.7 mph - -   Partly Cloudy
7:25 AM 37.4 °F 27.8 °F 33.8 °F 87% 29.33 in 6.2 mi SSE 17.3 mph - N/A   Partly Cloudy
7:55 AM 37.4 °F 27.8 °F 33.8 °F 87% 29.33 in 6.2 mi SSE 17.3 mph - N/A   Overcast
8:00 AM 38 °F - 34 °F 80% 29.33 in 11 mi South 17.9 mph - -   Overcast
8:25 AM 37.4 °F 27.8 °F 33.8 °F 87% 29.33 in 6.2 mi SSE 17.3 mph - N/A   Overcast
8:55 AM 37.4 °F 27.2 °F 33.8 °F 87% 29.33 in 6.2 mi SSE 19.6 mph - N/A   Overcast
9:00 AM 38 °F - 34 °F 79% 29.33 in 14 mi SSE 20.1 mph - -   Overcast
9:25 AM 39.2 °F 29.8 °F 33.8 °F 81% 29.33 in 6.2 mi SSE 18.4 mph - N/A   Overcast
9:55 AM 39.2 °F 29.6 °F 33.8 °F 81% 29.33 in 6.2 mi SSE 19.6 mph - N/A   Overcast
10:00 AM 39 °F - 34 °F 76% 29.34 in 16 mi SSE 20.1 mph - -   Overcast
10:25 AM 39.2 °F 30.2 °F 33.8 °F 81% 29.33 in 6.2 mi SSE 17.3 mph 28.8 mph N/A   Overcast
10:55 AM 39.2 °F 29.8 °F 33.8 °F 81% 29.33 in 6.2 mi SSE 18.4 mph - N/A   Overcast
11:00 AM 40 °F - 34 °F 73% 29.34 in 18 mi SSE 17.9 mph - -   Overcast
11:25 AM 39.2 °F 29.6 °F 35.6 °F 87% 29.33 in 6.2 mi SSE 19.6 mph 31.1 mph N/A   Overcast
11:55 AM 41.0 °F 32.2 °F 35.6 °F 81% 29.33 in 6.2 mi SSE 18.4 mph - N/A   Overcast
12:00 PM 41 °F - 35 °F 73% 29.33 in 12 mi SSE 20.1 mph - -   Overcast
12:25 PM 41.0 °F 31.9 °F 35.6 °F 81% 29.33 in 6.2 mi SSE 19.6 mph - N/A   Overcast
12:55 PM 41.0 °F 31.9 °F 35.6 °F 81% 29.33 in 6.2 mi SSE 19.6 mph - N/A   Overcast
1:00 PM 42 °F - 36 °F 71% 29.33 in 12 mi SSE 20.1 mph - - Rain Drizzle
1:25 PM 42.8 °F 33.8 °F 35.6 °F 76% 29.33 in 6.2 mi SSE 21.9 mph - N/A   Overcast
1:55 PM 42.8 °F 34.0 °F 35.6 °F 76% 29.33 in 6.2 mi SSE 20.7 mph - N/A   Overcast
2:00 PM 42 °F - 36 °F 72% 29.33 in 14 mi SSE 20.1 mph - -   Overcast
2:25 PM 41.0 °F 31.6 °F 37.4 °F 87% 29.33 in 6.2 mi SSE 20.7 mph - N/A   Drizzle
2:55 PM 41.0 °F 31.4 °F 35.6 °F 81% 29.33 in 6.2 mi SSE 21.9 mph - N/A   Drizzle
3:00 PM 42 °F - 36 °F 74% 29.33 in 9 mi SSE 20.1 mph - - Rain Light Rain Showers
3:25 PM 41.0 °F 31.4 °F 37.4 °F 87% 29.33 in 6.2 mi SSE 21.9 mph 34.5 mph N/A   Drizzle
3:55 PM 41.0 °F 32.5 °F 37.4 °F 87% 29.33 in 6.2 mi SSE 17.3 mph - N/A Rain Light Rain
4:00 PM 42 °F - 37 °F 75% 29.34 in 16 mi SE 20.1 mph - - Rain Light Rain
4:25 PM 41.0 °F 32.5 °F 37.4 °F 87% 29.33 in 6.2 mi SSE 17.3 mph - N/A   Overcast
4:55 PM 41.0 °F 32.5 °F 35.6 °F 81% 29.33 in 6.2 mi SSE 17.3 mph - N/A   Overcast
5:00 PM 42 °F - 36 °F 73% 29.35 in 18 mi SSE 20.1 mph - - Rain Light Rain
5:25 PM 41.0 °F 32.8 °F 37.4 °F 87% 29.33 in 6.2 mi SSE 16.1 mph - N/A   Light Drizzle
5:55 PM 42.8 °F 34.5 °F 35.6 °F 76% 29.36 in 6.2 mi SE 18.4 mph - N/A   Overcast
6:00 PM 42 °F - 36 °F 72% 29.36 in 25 mi SSE 17.9 mph - - Rain Rain
6:25 PM 42.8 °F 35.1 °F 35.6 °F 76% 29.36 in 6.2 mi SE 16.1 mph - N/A   Overcast
6:55 PM 42.8 °F 35.8 °F 35.6 °F 76% 29.36 in 6.2 mi SE 13.8 mph - N/A   Overcast
7:00 PM 42 °F - 36 °F 72% 29.37 in 10 mi SE 13.4 mph - - Rain Light Drizzle
7:25 PM 42.8 °F 35.1 °F 35.6 °F 76% 29.36 in 6.2 mi SE 16.1 mph - N/A Rain Light Rain
7:55 PM 41.0 °F 32.8 °F 37.4 °F 87% 29.39 in 6.2 mi SSE 16.1 mph - N/A Rain Light Rain
8:00 PM 41 °F - 37 °F 80% 29.39 in 12 mi SSE 13.4 mph - - Rain Light Rain Showers
8:25 PM 41.0 °F 33.1 °F 37.4 °F 87% 29.39 in 6.2 mi SSE 15.0 mph - N/A   Light Drizzle
8:55 PM 41.0 °F 33.5 °F 35.6 °F 81% 29.39 in 6.2 mi SSE 13.8 mph - N/A   Overcast
9:00 PM 41 °F - 36 °F 76% 29.40 in 19 mi SE 11.2 mph - - Rain Rain
9:25 PM 41.0 °F 33.9 °F 35.6 °F 81% 29.39 in 6.2 mi SE 12.7 mph - N/A   Overcast
9:55 PM 41.0 °F 34.3 °F 35.6 °F 81% 29.39 in 6.2 mi SE 11.5 mph - N/A   Overcast
10:00 PM 41 °F - 35 °F 72% 29.41 in 17 mi ESE 11.2 mph - -   Partly Cloudy
10:25 PM 41.0 °F 33.5 °F 33.8 °F 76% 29.39 in 6.2 mi ESE 13.8 mph - N/A   Overcast
10:55 PM 41.0 °F 34.7 °F 33.8 °F 76% 29.42 in 6.2 mi ESE 10.4 mph - N/A   Overcast
11:00 PM 41 °F - 34 °F 68% 29.42 in 19 mi ESE 13.4 mph - -   Partly Cloudy
11:25 PM 41.0 °F 34.3 °F 33.8 °F 76% 29.42 in 6.2 mi ESE 11.5 mph - N/A   Overcast
11:55 PM 41.0 °F 34.3 °F 33.8 °F 76% 29.42 in 6.2 mi ESE 11.5 mph - N/A   Overcast